Regional Weather Roundup
Issued by NWS San Diego, CA

Home | Current Version | Previous Version | Text Only | Print | Product List | Glossary On
Versions: 1 2 3 4 5 6 7 8 9 10 11 12 13 14 15 16 17 18 19 20 21 22 23 24 25 26 27 28 29 30 31 32 33 34 35 36 37 38 39 40 41 42 43 44 45 46 47 48 49 50
000
ASUS46 KSGX 070411
RWRSGX

SAN DIEGO HOURLY WEATHER ROUNDUP
NATIONAL WEATHER SERVICE SAN DIEGO CA
900 PM PDT MON JUL 06 2015

NOTE: "FAIR" INDICATES FEW OR NO CLOUDS BELOW 12,000 FEET WITH NO
SIGNIFICANT WEATHER AND/OR OBSTRUCTIONS TO VISIBILITY.

CAZ042-043-060-061-PZZ750-775-070500-

GREATER SAN DIEGO AREA

CITY           SKY/WX    TMP DP  RH WIND       PRES   REMARKS
LINDBERGH FLD  CLOUDY    68  59  73 NW6       30.01S
POINT LOMA       N/A     65  59  81 W9          N/A
NATIONAL CITY    N/A     67  61  81 W3        30.00S
CHULA VISTA      N/A     66  62  86 CALM      29.93S
IMPERIAL BEACH CLOUDY    67  60  78 W7        30.01R
BROWN FIELD    CLOUDY    64  59  83 W7        30.00S
MIRAMAR MCAS   CLOUDY    68  58  70 CALM      30.00S
MONTGOMERY FLD CLOUDY    66  59  78 W5        30.00S

$$

NORTH SAN DIEGO COUNTY

CITY           SKY/WX    TMP DP  RH WIND       PRES   REMARKS
CAMP PENDLETON CLOUDY    67  59  75 SW6       29.99R
OCEANSIDE AP   CLOUDY    67  60  78 VRB3      29.98R
OCEANSIDE HBR    N/A     66  62  85 SW1       30.02R
VISTA            N/A     66  61  83 CALM      29.98R
CARLSBAD       CLOUDY    66  60  81 SW6       29.99R
DEL MAR          N/A     66  62  87 CALM      30.02R
LA JOLLA SCRIP   N/A    N/A N/A N/A SW2       29.97S
FALLBROOK        N/A     66  64  93 S1        29.97S
ESCONDIDO        N/A     66  61  85 SW5       30.01R
SAN MARCOS       N/A     64  60  86 CALM      29.98R
POWAY            N/A     65  60  83 CALM      30.00R

$$

EAST SAN DIEGO COUNTY

CITY           SKY/WX    TMP DP  RH WIND       PRES   REMARKS
RAMONA         CLOUDY    63  58  83 W7        30.01R
SANTEE LAKES     N/A     66  60  82 W5        29.99R
JAMUL            N/A     64  59  83 CALM      29.99R
DESCANSO N       N/A     63  57  80 CALM      29.82R
CAMPO            N/A     62  58  86 S5        30.00R

$$

ORANGE COUNTY AND THE LOS ANGELES BASIN

CITY           SKY/WX    TMP DP  RH WIND       PRES   REMARKS
JOHN WAYNE AP  MOCLDY    66  59  78 SW7       29.99S
SANTA ANA        N/A     68  60  75 CALM      29.94R
HUNTINGTON BCH   N/A     64  61  89 SW3       30.00S
LOS ALAMITOS   CLOUDY    66  61  84 SW9       29.98S
FULLERTON      MOCLDY    68  60  75 S6        29.97R
LONG BEACH     CLOUDY    68  60  75 NW8       29.98R
L.A. AP        CLOUDY    63  60  90 W8        29.99S
L.A. DOWNTOWN  CLOUDY    65  59  81 VRB5      29.98R

$$

THE INLAND EMPIRE

CITY           SKY/WX    TMP DP  RH WIND       PRES   REMARKS
CORONA         MOCLDY    66  58  75 W14G20    29.97R
CHINO          CLEAR     68  59  73 W9        29.98R
ONTARIO        CLEAR     68  58  70 W10       29.97R
SAN BERNARDINO CLEAR     72  55  56 SW13      29.97R
RIVERSIDE AP     N/A    N/A N/A N/A MISG      29.97R
MORENO VALLEY    N/A     73  63  72 CALM      29.94S
MARCH ARB      CLEAR     70  59  67 NW9       29.98R
HORSETHIEF CYN   N/A     70  57  63 SW6       29.98R
PERRIS           N/A     73  60  65 W3          N/A
MENIFEE          N/A     69  63  80 S7        30.02R
HEMET EAST       N/A     76  57  51 W2        29.95S
FRENCH VALLEY  FAIR      64  59  82 SW6       30.01R
TEMECULA         N/A     67  61  83 SW3       29.94R

$$

SAN BERNARDINO AND RIVERSIDE COUNTY MOUNTAINS

CITY           SKY/WX    TMP DP  RH WIND       PRES   REMARKS
BIG BEAR AP    CLEAR     63  48  59 CALM      30.27S
PINE COVE        N/A     68  51  54 CALM      29.85R

$$

SOUTHERN DESERT INCLUDING THE COACHELLA VALLEY

CITY           SKY/WX    TMP DP  RH WIND       PRES   REMARKS
PALM SPRINGS   PTCLDY    94  58  29 NW17G29   29.80R
THOUSAND PALMS   N/A     92  57  30 NW9       29.76R
PALM DESERT      N/A     96  61  31 CALM      28.95R HX  96
THERMAL        CLEAR     95  53  24 N10       29.73R
BLYTHE         CLEAR    101  60  25 SW9       29.76R HX 101
IMPERIAL AP    CLEAR     97  46  17 S12       29.74R
EL CENTRO NAS  PTCLDY    94  46  19 SE8       29.76S
YUMA AZ        CLEAR     95  46  18 S6        29.78R
MEXICALI       CLEAR     90  50  25 SE8       29.77R

$$

UPPER DESERT

CITY           SKY/WX    TMP DP  RH WIND       PRES   REMARKS
VICTORVILLE AP CLEAR     81  46  30 S9        29.99R
HESPERIA         N/A     80  53  39 NW8       29.91S
APPLE VALLEY     N/A     82  49  31 CALM      30.04R
PALMDALE       CLEAR     82  30  15 SW16      29.98R
LANCASTER      CLEAR     78  37  22 SW14      29.98R
EDWARDS AFB    PTCLDY    83  43  24 SW15      29.93R
DAGGETT        CLEAR     90  52  27 SW9       29.88R
29 PALMS N     CLEAR     89  55  31 SW15      29.95R
NEEDLES        PTCLDY    98  55  23 SW5       29.80R HX  96

$$

REGIONAL REPORTS

CITY           SKY/WX    TMP DP  RH WIND       PRES   REMARKS
SANTA BARBARA  CLEAR     65  60  84 SE9       29.94R
SANDBERG       CLEAR     71  54  54 NW8       30.13S
LAS VEGAS NV   LGT RAIN  79  64  60 SW10      29.93R
PHOENIX AZ     CLOUDY    97  55  24 NW9       29.81R HX  95
TIJUANA        CLOUDY    64  55  72 W8        30.02S
ENSENADA NW      N/A     66  32  27 NW6       29.97S

$$

OFFSHORE ISLANDS

CITY           SKY/WX    TMP DP  RH WIND       PRES   REMARKS
CATALINA ARPT  FOG       57  57 100 W8        30.02R VSB 1/4
SAN NICOLAS IS CLOUDY   N/A N/A N/A W17       29.99S

$$

MARINE AND OFFSHORE BUOY REPORTS

STATION/POSITION SKY/WX   TEMP    WIND        PRES    SWELL
                          AIR SEA DIR/SP/G            HT/PER/DIR
                          (F)     (DEG/KT/KT) (MB)    (FT/S/D)
TANNER BANKS               64 64  320/ 12/ 14 1016.2R   3/160/14
S CLEMENTE BASIN           63 68  300/ 12/ 16 1015.6S   3/210/14
SAN NICOLAS IS.               65                N/A     3/190/14
SO. S. ROSA ISLA           63 65  300/ 19/ 23 1014.3R   3/14
W. S. BARBARA CH           60 60  310/ 17/ 19 1014.4S   2/250/14
M. S. BARBARA CH           63 63  260/ 14/ 17 1014.1F
S. MONICA BASIN            64 68   20/  6/  8 1015.0R   2/180/15
S PEDRO CHANNEL               66                N/A     2/210/11
DANA POINT                    69                N/A     2/200/14
OCEANSIDE OFFSHR              69                N/A     2/210/14
TORREY PINES OTR              70                N/A     2/210/14
LA JOLLA 1                 67 70  250/  6/  8 1015.5R
MISSION BAY BUOY              69                N/A     2/200/14
SAN DIEGO BAY                 71              1016.1R
POINT LOMA SOUTH              69                N/A     2/190/14

$$



USA.gov is the U.S. government's official web portal to all federal, state and local government web resources and services.